EHI
0 0 0 0 0 0 0 0 0 0 0 0 0 0 0 0 0 0 0 0 0 0 0 0 0 0 0 0 1 1 1 1 2 2 2 1 0 0 1 1 1 0 1 2 2 1 1 2 3
0 0 0 0 0 0 0 0 0 0 0 0 0 0 0 0 0 0 0 0 0 0 0 0 0 0 0 0 0 0 1 1 2 1 1 0 0 0 0 0 0 0 1 2 3 2 2 3 3
0 0 0 0 0 0 0 0 0 0 0 0 0 0 0 0 0 0 0 0 0 0 0 0 0 0 0 0 0 0 0 1 1 0 0 0 0 0 0 0 0 0 1 2 3 4 3 2 2
0 0 0 0 0 0 0 0 0 0 0 0 0 0 0 0 0 0 0 0 0 0 0 0 0 0 0 0 0 0 0 0 0 0 0 0 0 0 0 0 0 0 1 1 3 4 3 1 1
0 0 0 0 0 0 0 0 0 0 0 0 0 0 0 0 0 0 0 0 0 0 0 0 0 0 0 0 0 0 0 0 0 0 0 0 0 0 0 0 0 0 0 1 2 2 1 1 1
0 0 0 0 0 0 0 0 0 0 0 0 0 0 0 0 0 0 0 0 0 0 0 0 0 0 0 0 0 0 0 0 0 0 0 0 0 0 0 0 0 0 0 1 1 1 0 0 1
0 0 0 0 0 0 0 0 0 0 0 0 0 0 0 0 0 0 0 0 0 0 0 0 0 0 0 0 0 0 0 0 0 0 0 0 0 0 0 0 0 0 0 0 0 0 0 0 0
0 0 0 0 0 0 0 0 0 0 0 0 0 0 0 0 0 0 0 0 0 0 0 0 0 0 0 0 0 0 0 0 0 0 0 0 0 0 0 0 0 0 0 0 0 0 0 0 0
0 0 0 0 0 0 0 0 0 0 0 0 0 0 0 0 0 0 0 0 0 0 0 0 0 0 0 0 0 0 0 0 0 0 0 0 0 0 0 0 0 0 0 0 0 0 0 0 0
0 0 0 0 0 0 0 0 0 0 0 0 0 0 0 0 0 1 0 0 0 0 0 0 0 0 0 0 0 0 0 0 0 0 0 0 0 0 0 0 0 0 0 0 0 0 0 0 0
0 0 0 0 0 0 0 0 0 0 0 0 0 0 0 0 0 0 0 0 0 0 0 0 0 0 0 0 0 0 0 0 0 0 0 0 0 0 0 0 0 0 0 0 0 0 0 0 0
0 0 0 0 0 0 0 0 0 0 0 0 0 0 0 0 0 0 0 0 0 0 0 0 0 0 0 0 0 0 0 0 0 0 0 0 0 0 0 0 0 0 0 0 0 0 0 0 0
0 0 0 0 0 0 0 0 0 0 0 0 0 0 0 0 0 0 0 0 0 0 0 0 0 0 0 0 0 0 0 0 0 0 0 0 0 0 0 0 0 0 0 0 0 0 0 0 0
0 0 0 0 0 0 0 0 0 0 0 0 0 0 0 0 0 0 0 0 0 0 0 0 0 0 0 0 0 0 0 0 0 0 0 0 0 0 0 0 0 0 0 0 0 0 0 0 0
0 0 0 0 0 0 0 0 0 0 0 0 0 0 0 0 0 0 0 0 0 0 0 0 0 0 0 0 0 0 0 0 0 0 0 0 0 0 0 0 0 0 0 0 0 0 0 0 0
0 0 0 0 0 0 0 0 0 0 0 0 0 0 0 0 0 0 0 0 0 0 0 0 0 0 0 0 0 0 0 0 0 0 0 0 0 0 0 0 0 0 0 0 0 0 0 0 0
0 0 0 0 0 0 0 0 0 0 0 0 0 0 0 0 0 0 0 0 0 0 0 0 0 0 0 0 0 0 0 0 0 0 0 0 0 0 0 0 0 0 0 0 0 0 0 0 0
0 0 0 0 0 0 0 0 0 0 0 0 0 0 0 0 0 0 0 0 0 0 0 0 0 0 0 0 0 0 0 0 0 0 0 0 0 0 0 0 0 0 0 0 0 0 0 0 0
0 0 0 0 0 0 0 0 0 0 0 0 0 0 0 0 0 0 0 0 0 0 0 0 0 0 0 0 0 0 0 0 0 0 0 0 0 0 0 0 0 0 0 0 0 0 0 0 0
0 0 0 0 0 0 0 0 0 0 0 0 0 0 0 0 0 0 0 0 0 0 0 0 0 0 0 0 0 0 0 0 0 0 0 0 0 0 0 0 0 0 0 0 0 0 0 0 0
0 0 0 0 0 0 0 0 0 0 0 0 0 0 0 0 0 0 0 0 0 0 0 0 0 0 0 0 0 0 0 0 0 0 0 0 0 0 0 0 0 0 0 0 0 0 0 0 0
0 0 0 0 0 0 0 0 0 0 0 0 0 0 0 0 0 0 0 0 0 0 0 0 0 0 0 0 0 0 0 0 0 0 0 0 0 0 0 0 0 0 0 0 0 0 0 0 0
0 0 0 0 0 0 0 0 0 0 0 0 0 0 0 0 0 0 0 0 0 0 0 0 0 0 0 0 0 0 0 0 0 0 0 0 0 0 0 0 0 0 0 0 0 0 0 0 0
0 0 0 0 0 0 0 0 0 0 0 0 0 0 0 0 0 0 0 0 0 0 0 0 1 2 1 0 0 0 0 0 0 0 0 0 0 0 0 0 0 0 0 0 0 0 0 0 0
0 0 0 0 0 0 0 0 0 0 0 0 0 0 0 0 0 0 0 0 0 0 0 0 1 2 1 0 0 0 0 0 0 0 0 0 0 0 0 0 0 0 0 0 0 0 0 0 0
0 0 0 0 0 0 0 0 0 0 0 0 0 0 0 0 0 0 0 0 0 0 0 0 0 1 1 0 0 0 0 0 0 0 0 0 0 0 0 0 0 0 0 0 0 0 0 0 0
0 0 0 0 0 0 0 0 0 0 0 0 0 0 0 0 0 0 0 0 0 0 0 0 0 0 0 0 0 0 0 0 0 0 0 0 0 0 0 0 0 0 0 0 0 0 0 0 0
0 0 0 0 0 0 0 0 0 0 0 0 0 0 0 0 0 0 0 0 0 0 0 0 0 0 0 0 0 0 0 0 0 1 1 0 0 0 0 0 0 0 0 0 0 0 0 0 0
0 0 0 0 0 0 0 0 0 0 0 0 0 0 0 0 0 0 0 0 0 0 0 0 0 0 0 0 0 0 0 1 1 1 2 1 0 0 0 0 0 0 0 0 0 0 0 0 0
0 0 0 0 0 0 0 0 0 0 0 0 0 0 0 0 0 0 0 0 0 0 0 0 0 0 0 0 0 0 0 1 1 1 2 1 0 0 0 0 0 0 0 0 0 0 0 0 0
Wind_Speed
4 3 2 3 4 2 4 4 3 4 4 5 5 5 6 7 6 7 5 4 5 6 6 7 7 8 8 8 8 8 9 9 9 9 9 9 9 9 10 10 9 9 9 9 9 9 9 9 9
2 2 3 4 3 3 5 4 5 6 6 6 6 6 7 8 7 7 5 6 6 7 6 7 8 8 8 8 9 10 10 10 9 9 10 10 9 9 9 9 9 9 9 9 9 9 9 9 9
3 3 3 2 1 2 5 5 7 7 6 3 4 5 6 6 5 5 6 7 7 7 7 9 8 8 8 9 9 9 9 10 10 10 10 10 9 9 8 9 8 8 8 8 8 8 8 8 9
2 3 3 2 5 5 4 6 6 7 6 4 5 7 6 5 4 7 8 7 8 8 8 10 9 9 9 9 9 9 10 10 10 10 9 9 9 8 8 8 8 8 8 8 8 7 8 8 8
3 3 3 4 6 5 5 4 3 4 4 5 5 8 7 5 8 9 8 8 8 8 8 9 10 9 9 9 9 9 9 10 9 9 9 8 8 8 7 7 7 7 7 7 7 7 8 8 8
2 3 3 5 6 6 5 3 3 6 7 6 6 7 7 6 8 8 8 8 8 8 7 8 10 8 9 9 10 9 9 9 9 9 9 8 8 7 7 8 7 7 7 7 7 7 8 8 8
2 1 2 5 6 5 4 3 3 5 7 5 4 6 7 7 7 8 8 8 8 8 7 7 7 9 9 9 9 10 10 10 10 9 9 9 8 8 7 7 7 8 8 8 8 9 9 9 8
2 1 4 4 5 5 4 4 4 4 6 4 2 5 7 8 8 8 8 8 8 7 6 6 7 6 7 9 11 10 10 10 10 10 9 7 7 7 6 6 8 7 8 8 9 8 8 9 9
3 2 3 3 4 5 5 5 4 4 6 4 4 6 10 11 9 9 8 8 7 6 6 6 6 6 6 8 8 8 8 8 6 8 6 2 4 6 5 10 8 8 8 9 9 9 8 7 9
2 1 3 3 3 5 5 5 5 5 7 6 8 9 11 10 9 9 8 8 8 7 6 5 5 5 6 5 5 4 5 4 4 5 5 4 5 5 5 8 8 8 7 8 7 6 5 2 5
1 3 5 4 4 5 6 5 3 5 5 6 9 11 11 10 9 8 7 7 7 6 5 5 5 5 4 4 3 3 3 3 4 5 5 4 4 3 3 3 4 5 4 4 5 3 3 4 5
4 5 4 4 4 4 5 5 4 2 4 6 8 10 11 10 9 8 7 6 7 7 5 4 4 4 4 4 3 3 3 3 3 3 5 3 3 3 3 2 3 2 3 3 3 3 5 5 6
6 6 5 5 6 6 6 5 5 4 6 7 9 10 10 9 8 7 7 7 6 7 5 4 3 4 4 4 2 3 3 3 4 3 3 4 3 3 3 3 3 3 3 3 3 4 6 6 7
6 7 6 5 6 5 6 5 4 5 6 8 9 9 8 8 8 7 7 7 6 6 5 5 4 3 3 3 3 3 4 3 3 3 3 4 3 3 2 3 3 3 3 3 4 6 6 6 6
7 8 6 4 4 4 4 4 4 5 7 8 8 8 7 7 7 6 6 6 6 6 6 5 4 4 4 4 4 3 3 3 3 3 3 4 4 3 3 3 3 3 3 4 4 7 5 6 6
6 5 4 4 3 4 4 3 5 5 7 7 7 7 7 7 7 6 5 5 6 6 6 6 4 4 4 4 4 3 3 3 3 3 3 4 4 4 3 3 3 3 3 3 4 4 5 5 5
5 4 4 4 3 3 4 3 5 5 6 6 7 7 7 7 7 6 6 5 6 6 6 7 6 5 5 5 4 3 4 3 3 3 3 4 4 4 4 3 2 4 3 3 4 4 4 5 5
4 4 3 3 3 4 5 3 5 6 7 7 7 7 7 8 8 7 6 6 6 6 6 7 6 5 6 4 4 3 3 3 3 3 3 4 3 4 4 2 3 3 3 3 4 5 5 5 5
3 4 3 2 2 4 4 4 5 7 8 8 8 8 8 8 8 7 8 8 8 8 7 7 7 6 4 4 3 3 3 2 3 3 4 4 4 4 4 2 3 2 3 3 4 5 6 4 3
5 5 3 3 2 3 3 4 5 7 8 9 9 9 9 9 9 8 8 9 9 9 8 8 7 6 5 3 3 2 3 2 3 2 3 4 4 3 3 3 3 3 3 4 4 3 2 3 1
5 4 4 3 3 3 4 5 7 7 8 8 9 9 9 9 10 10 10 10 10 10 9 7 7 7 6 5 4 3 3 3 3 3 2 3 3 3 3 4 3 3 3 3 2 2 2 2 2
4 3 4 5 5 3 4 3 5 7 8 9 10 10 10 10 10 10 10 10 10 10 9 9 8 7 7 7 5 5 3 3 3 2 3 4 3 3 3 4 3 3 2 3 2 2 1 1 1
2 3 4 5 5 4 5 5 3 6 8 10 11 11 11 11 11 11 11 11 10 10 9 8 8 8 7 7 6 5 4 3 3 3 4 4 4 3 3 3 3 3 3 3 3 2 1 1 1
5 5 4 5 6 6 4 5 3 4 7 8 9 10 11 11 10 10 10 10 9 9 9 9 9 8 7 7 7 6 5 5 5 4 4 3 3 3 4 3 3 3 3 3 2 2 2 2 2
7 6 4 5 5 2 2 6 3 1 3 6 8 9 10 10 10 10 10 10 10 10 10 10 10 9 8 9 8 7 6 6 6 5 4 4 3 3 3 3 3 3 3 3 3 3 3 2 2
7 7 4 3 2 1 4 6 1 1 2 4 6 7 9 10 10 10 11 11 10 11 11 11 11 10 9 8 8 7 7 5 4 4 4 4 3 3 3 3 3 3 3 3 3 2 3 3 3
7 7 5 6 4 4 4 3 3 3 3 4 5 7 9 10 10 10 10 10 10 11 11 11 11 10 9 9 8 7 7 6 5 6 5 3 4 3 4 4 4 4 3 3 3 2 3 2 2
5 4 5 6 4 5 4 4 2 3 4 5 6 7 8 9 9 10 10 10 10 10 10 10 11 10 9 9 8 6 7 6 6 6 6 5 5 5 5 4 4 4 4 3 3 3 2 3 3
7 8 6 5 5 5 3 1 1 2 2 4 5 6 7 8 9 9 9 9 9 9 10 10 10 10 9 9 8 8 7 7 7 6 6 5 5 5 5 4 4 4 3 3 3 3 3 3 3
8 8 9 7 6 6 5 1 3 1 2 3 4 5 6 7 8 8 9 9 9 10 10 10 10 10 9 9 8 8 7 7 7 7 6 6 6 5 4 4 4 4 3 3 3 3 3 3 3
Wind_Direction
154 162 207 240 227 183 96 82 89 105 83 71 67 69 71 50 35 72 92 94 94 93 91 101 89 90 89 89 90 93 93 95 94 92 89 86 85 86 89 90 89 86 84 79 78 76 76 75 72
159 176 222 243 243 149 101 95 97 82 96 103 81 74 75 70 61 87 101 93 97 95 91 86 88 90 90 90 87 86 88 90 91 88 86 84 82 81 81 81 84 84 80 78 76 73 74 74 72
165 235 252 238 221 76 97 94 100 100 105 104 87 63 57 68 81 90 99 105 96 89 88 85 81 88 86 86 86 85 88 90 90 90 87 86 83 81 79 78 82 83 80 79 77 74 75 75 71
212 216 229 192 102 67 83 101 118 126 107 88 107 88 74 47 74 101 112 109 98 89 85 84 77 83 85 87 88 86 89 90 88 86 84 83 83 81 79 78 79 81 81 81 78 76 76 77 74
237 245 190 129 100 89 85 91 129 121 106 99 104 98 84 68 94 108 112 107 99 92 86 86 79 81 86 88 89 87 89 90 87 83 79 77 77 76 75 74 74 76 78 79 81 81 79 77 75
222 232 187 131 113 109 98 95 121 108 107 107 106 100 86 99 105 107 109 105 100 96 93 95 95 89 83 84 86 83 85 86 83 79 74 73 71 72 71 71 73 74 75 77 82 82 79 76 73
266 233 140 128 128 121 99 100 116 120 114 100 106 105 110 115 110 115 110 106 99 95 94 93 102 105 101 86 83 82 80 80 79 77 73 71 70 69 69 72 73 75 75 79 85 84 81 75 71
298 203 143 138 139 112 107 107 87 100 98 98 109 118 126 129 130 124 116 111 106 103 100 99 97 96 100 99 86 83 80 80 79 77 74 78 90 89 90 91 75 76 80 84 87 84 83 80 74
258 213 142 128 137 117 127 127 105 93 110 98 81 90 115 131 139 135 127 123 116 113 107 100 98 93 92 92 98 99 95 90 108 101 95 118 92 88 97 70 74 78 81 84 87 87 90 97 91
258 156 94 82 110 122 128 121 127 137 123 117 113 112 125 140 148 142 138 134 129 126 115 106 98 95 90 86 96 92 92 97 89 88 86 76 73 68 66 89 78 82 88 96 91 102 127 142 97
57 86 106 107 113 127 129 115 124 146 127 133 137 139 143 149 150 143 137 132 127 125 118 115 108 97 93 98 87 84 87 88 80 76 84 81 86 95 81 94 113 109 121 104 114 140 85 79 73
103 90 104 112 122 133 128 124 115 103 106 121 136 143 149 154 152 149 143 137 137 132 128 121 116 112 103 98 90 90 94 91 87 80 76 81 73 67 74 74 66 73 79 83 83 76 85 80 83
116 110 98 105 111 120 121 116 109 106 117 127 136 147 154 154 151 150 147 150 148 138 133 123 120 109 107 102 98 96 86 79 89 75 76 80 76 73 79 82 74 70 76 90 88 83 80 77 72
115 117 112 114 116 124 129 126 130 121 133 140 147 154 160 159 158 155 157 155 151 143 142 137 131 120 118 115 110 90 85 90 78 77 75 79 73 68 72 77 72 68 70 73 86 88 87 80 74
135 127 121 121 131 138 150 134 134 137 151 152 159 159 164 165 167 169 161 161 156 149 149 144 137 134 119 105 92 90 97 95 83 80 72 71 65 64 72 68 82 83 89 91 84 89 92 91 89
166 165 147 128 146 164 205 151 135 153 166 167 167 164 172 173 177 171 169 167 162 159 152 145 147 144 123 115 112 108 99 90 83 78 71 70 66 64 65 70 82 85 87 92 95 98 101 96 88
184 179 154 142 156 174 203 167 150 171 182 180 181 178 177 174 180 179 176 172 169 167 163 158 150 144 128 120 118 104 100 90 83 73 64 60 61 64 75 62 75 97 94 96 103 101 100 96 91
173 177 168 166 159 195 201 191 163 181 196 196 193 190 185 184 185 181 177 174 175 176 172 161 148 151 142 141 128 114 105 100 88 73 63 55 54 62 73 82 89 95 102 102 106 105 95 94 98
180 181 172 160 155 211 211 211 190 186 199 206 201 196 194 193 182 177 179 178 180 178 173 163 163 157 159 153 152 145 130 120 102 82 73 71 63 64 72 69 84 89 96 102 114 115 115 111 111
189 182 170 147 166 230 228 230 210 201 208 212 209 203 199 194 182 178 184 184 185 180 176 173 171 166 166 159 148 138 129 118 93 89 77 75 76 68 71 80 92 97 102 108 109 120 121 109 135
199 207 196 173 161 201 245 227 206 203 214 213 217 211 202 198 196 185 188 189 188 187 181 180 176 171 168 164 154 147 142 148 138 125 103 82 81 79 75 79 81 87 101 106 113 125 127 120 107
204 202 204 197 213 196 239 252 200 200 209 211 212 207 204 200 199 191 191 193 192 190 183 185 184 179 175 176 178 176 173 158 143 134 123 118 101 91 83 86 85 86 90 106 119 114 117 128 118
192 175 199 221 242 240 224 257 201 191 215 212 209 208 203 201 199 195 196 196 194 189 186 190 190 188 184 186 176 189 179 161 153 146 136 134 113 98 96 91 90 88 85 92 93 91 79 82 64
165 171 183 214 239 238 225 250 237 195 222 216 207 206 203 201 200 198 193 191 189 186 186 190 192 190 187 187 185 189 176 173 165 161 151 147 130 113 105 102 98 91 84 88 91 98 92 59 58
202 208 207 205 214 224 185 246 257 207 222 223 213 202 198 197 198 195 191 188 187 185 187 190 191 190 189 191 189 185 184 185 177 168 162 159 143 131 121 123 110 94 90 91 94 91 83 80 70
206 234 256 257 249 223 203 242 224 98 225 226 214 198 194 193 197 196 194 191 190 189 187 191 192 191 189 193 191 189 182 189 176 174 167 160 146 136 133 129 113 105 104 103 95 91 86 82 82
206 221 260 279 270 255 214 225 218 185 200 200 193 188 193 195 196 197 194 191 191 191 191 192 190 189 190 191 190 189 186 186 178 176 169 159 148 140 145 141 128 117 113 109 113 103 103 93 83
245 209 216 241 258 249 236 235 230 183 189 188 191 190 190 193 195 197 198 196 195 192 190 190 192 189 189 190 188 183 185 182 180 175 169 163 157 152 153 150 139 130 125 123 116 109 97 106 94
195 203 223 237 255 271 261 220 63 261 219 206 198 193 190 192 194 196 197 197 193 188 186 188 190 189 187 187 184 183 179 179 178 178 170 167 165 165 162 155 150 138 134 131 131 128 123 119 117
227 224 222 235 230 246 268 267 101 258 244 223 205 190 189 190 193 193 192 190 188 188 187 188 189 188 185 182 181 182 178 177 181 177 173 173 169 169 165 161 157 147 142 136 134 133 137 131 128